Location: Castellar de la Frontera
(36.3200°N, 5.4500°W)
Time: 13:01:45
(UTC+01:00)

ISS - Visible Passes

Search period start: 10 December 2018 00:00
Search period end: 20 December 2018 00:00
Orbit: 401 x 408 km, 51.6° (Epoch: 10 December)

Date Brightness Start Highest point End Pass type
(mag) Time Alt. Az. Time Alt. Az. Time Alt. Az.
10 Dec -2.3 19:05:53 10° NNW 19:08:24 20° NNE 19:09:00 19° NE visible
11 Dec -3.6 19:49:35 10° NW 19:52:25 65° NW 19:52:25 65° NW visible
12 Dec -3.4 18:57:28 10° NW 19:00:35 42° NE 19:03:28 11° ESE visible
12 Dec -0.7 20:34:49 10° W 20:36:13 15° WSW 20:36:13 15° WSW visible
13 Dec -2.0 19:41:47 10° WNW 19:44:42 31° SW 19:47:37 10° SSE visible
14 Dec -3.5 18:49:18 10° NW 18:52:32 69° SW 18:55:46 10° SE visible
15 Dec -0.4 19:35:09 10° WSW 19:36:23 12° SW 19:37:37 10° SSW visible
16 Dec -1.1 18:41:37 10° WNW 18:44:18 24° SW 18:46:59 10° S visible
